DSN-3 (KIRAMEKI-3)

Last updated on Tue Sep 22 2026 00:03:16 GMT+0000 (Coordinated Universal Time)

1 61733U 24198A 26264.43227304 -.00000254 00000+0 00000+0 0 9999 2 61733 0.0135 229.4084 0001296 291.0016 139.5991 1.00271221 6882
UTC large
Height (km)
Speed (km/s)
/
Latitude / Longitude
Inclination (degrees)
Orbital Period (minutes)
Azimuth
Elevation
Range (km)
Doppler Factor

Next 0 passes for location: London (51.5072 / 0.1276)

No passes found over London.
DSN-3 (KIRAMEKI-3)